Location: Prague
(50.0830°N, 14.4670°E)
Time: 11:06:55
(UTC+01:00)

Oscar 11 - Pass Details

Date: 30 November 2021
Orbit: 611 x 625 km, 97.6° (Epoch: 23 January)

Event Time Altitude Azimuth Distance (km) Brightness Sun altitude
Rises 17:22:15 0° 196° (SSW) 2,892 11.0 -12.1°
Reaches altitude 10° 17:24:43 10° 208° (SSW) 1,993 10.4 -12.5°
Maximum altitude 17:28:24 27° 267° (W) 1,222 9.5 -13.0°
Drops below altitude 10° 17:32:07 10° 325° (NW) 2,011 9.9 -13.6°
Sets 17:34:37 0° 338° (NNW) 2,924 10.6 -14.0°
